Location: Gu�tanj
(46.5431°N, 14.9692°E)
Time: 18:36:57
(UTC+00:00)

Cosmos 2322 Rocket - Pass Details

Date: 03 March 2021
Orbit: 832 x 852 km, 71.0° (Epoch: 15 April)

Event Time Altitude Azimuth Distance (km) Brightness Sun altitude
Rises 17:23:30 0° 192° (SSW) 3,362 5.5 -6.7°
Reaches altitude 10° 17:25:57 10° 188° (S) 2,432 4.7 -7.1°
Maximum altitude 17:31:25 58° 111° (ESE) 967 2.3 -8.1°
Drops below altitude 10° 17:36:55 10° 33° (NNE) 2,454 4.3 -9.0°
Sets 17:39:24 0° 30° (NNE) 3,395 5.0 -9.5°
